|
NORAD ID: 38734 Int'l Code: 2012-041B
Perigee: 1,485.9 km
Apogee: 1,517.7 km
Inclination: 82.5 °
Period: 115.9 minutes
Semi major axis: 7872 km
Launch date: July 28, 2012
Source: Commonwealth of Independent States (former USSR) (CIS)
Comments: Gonets-M1 is a telecoms satellites.
Two Line Element Set (TLE):
1 38734U 12041B 13144.61719428 .00000024 00000-0 10000-3 0 2717
2 38734 082.4724 169.6555 0020193 021.0684 339.1224 12.42821177 37332
Source: AFSPC
NASA's NSSDC Master Catalog entry for GONETS M 03
|